SDM5864 OMDB-URSS

Flight info

Callsign SDM5864
Flight time 3h 10m
Altitude 40000
Route DAVMO M318 GABKO M317 ROTAL P574 SAV R654 MAGRI N77 OGEVI DCT AGISO DCT BANUT BANUT1L
Aircraft A359/H-SDE2E3GHIJ3J4J5LM1ORWXY/LB1D1

Departure

Time 2026-05-05 19:33
Airport Dubai International Airport (OMDB)

Arrival

Time 2026-05-05 22:43
Airport Sochi International Airport (URSS)
Time Latitude Longitude Altitude Speed Heading
2026-05-05 19:05 25.26423 55.34251 28 ft 0 kts 31°
2026-05-05 19:06 25.26411 55.34243 27 ft 2 kts 31°
2026-05-05 19:06 25.26397 55.34234 27 ft 2 kts 31°
2026-05-05 19:07 25.26384 55.34225 27 ft 2 kts 31°
2026-05-05 19:07 25.26370 55.34216 27 ft 3 kts 34°
2026-05-05 19:07 25.26357 55.34205 26 ft 2 kts 40°
2026-05-05 19:07 25.26345 55.34193 27 ft 2 kts 40°
2026-05-05 19:08 25.26333 55.34182 27 ft 2 kts 44°
2026-05-05 19:08 25.26321 55.34169 26 ft 2 kts 31°
2026-05-05 19:08 25.26307 55.34159 27 ft 2 kts 31°
2026-05-05 19:08 25.26294 55.34150 27 ft 2 kts 31°
2026-05-05 19:09 25.26280 55.34141 27 ft 2 kts 31°
2026-05-05 19:09 25.26267 55.34132 26 ft 2 kts 31°
2026-05-05 19:09 25.26253 55.34123 26 ft 2 kts 31°
2026-05-05 19:09 25.26245 55.34117 26 ft 0 kts 31°
2026-05-05 19:10 25.26272 55.34160 28 ft 7 kts 82°
2026-05-05 19:10 25.26259 55.34219 28 ft 9 kts 116°
2026-05-05 19:11 25.26227 55.34285 28 ft 11 kts 121°
2026-05-05 19:11 25.26185 55.34362 28 ft 13 kts 121°
2026-05-05 19:11 25.26134 55.34450 28 ft 15 kts 123°
2026-05-05 19:11 25.26087 55.34531 28 ft 9 kts 123°
2026-05-05 19:12 25.26081 55.34602 28 ft 10 kts 68°
2026-05-05 19:12 25.26121 55.34675 28 ft 12 kts 56°
2026-05-05 19:12 25.26176 55.34747 28 ft 5 kts 37°
2026-05-05 19:12 25.26176 55.34748 28 ft 0 kts 37°
2026-05-05 19:13 25.26203 55.34767 28 ft 15 kts 31°
2026-05-05 19:13 25.26290 55.34824 28 ft 11 kts 30°
2026-05-05 19:13 25.26337 55.34883 28 ft 10 kts 76°
2026-05-05 19:13 25.26318 55.34962 28 ft 12 kts 118°
2026-05-05 19:14 25.26276 55.35045 28 ft 13 kts 120°
2026-05-05 19:14 25.26225 55.35139 28 ft 13 kts 122°
2026-05-05 19:14 25.26222 55.35144 28 ft 0 kts 122°
2026-05-05 19:16 25.26207 55.35171 28 ft 16 kts 122°
2026-05-05 19:17 25.26138 55.35292 28 ft 19 kts 121°
2026-05-05 19:17 25.26066 55.35424 28 ft 21 kts 121°
2026-05-05 19:17 25.25989 55.35563 28 ft 22 kts 122°
2026-05-05 19:17 25.25902 55.35713 28 ft 24 kts 122°
2026-05-05 19:18 25.25811 55.35870 28 ft 25 kts 122°
2026-05-05 19:18 25.25731 55.36010 28 ft 22 kts 122°
2026-05-05 19:18 25.25648 55.36159 28 ft 23 kts 121°
2026-05-05 19:18 25.25562 55.36314 28 ft 25 kts 121°
2026-05-05 19:19 25.25480 55.36461 28 ft 22 kts 121°
2026-05-05 19:19 25.25397 55.36612 28 ft 24 kts 121°
2026-05-05 19:19 25.25308 55.36771 28 ft 25 kts 121°
2026-05-05 19:19 25.25267 55.36842 28 ft 0 kts 123°
2026-05-05 19:25 25.25240 55.36889 28 ft 17 kts 123°
2026-05-05 19:26 25.25173 55.37005 28 ft 19 kts 122°
2026-05-05 19:26 25.25100 55.37132 28 ft 20 kts 122°
2026-05-05 19:26 25.25021 55.37269 28 ft 22 kts 122°
2026-05-05 19:26 25.24936 55.37416 28 ft 23 kts 123°
2026-05-05 19:27 25.24851 55.37573 28 ft 24 kts 121°
2026-05-05 19:27 25.24773 55.37713 28 ft 19 kts 120°
2026-05-05 19:27 25.24706 55.37836 28 ft 17 kts 121°
2026-05-05 19:27 25.24645 55.37946 28 ft 14 kts 122°
2026-05-05 19:28 25.24590 55.38045 28 ft 11 kts 122°
2026-05-05 19:28 25.24562 55.38104 28 ft 8 kts 99°
2026-05-05 19:28 25.24579 55.38151 28 ft 6 kts 40°
2026-05-05 19:28 25.24582 55.38153 28 ft 0 kts 39°
2026-05-05 19:31 25.24592 55.38162 28 ft 11 kts 39°
2026-05-05 19:31 25.24667 55.38203 28 ft 11 kts
2026-05-05 19:31 25.24726 55.38163 28 ft 10 kts 304°
2026-05-05 19:31 25.24770 55.38093 28 ft 12 kts 305°
2026-05-05 19:32 25.24836 55.37982 28 ft 37 kts 302°
2026-05-05 19:32 25.25099 55.37506 28 ft 105 kts 301°
2026-05-05 19:32 25.25584 55.36626 29 ft 161 kts 301°
2026-05-05 19:32 25.26276 55.35559 556 ft 168 kts 309°
2026-05-05 19:33 25.27063 55.34625 1199 ft 168 kts 315°
2026-05-05 19:33 25.27789 55.33550 1455 ft 185 kts 296°
2026-05-05 19:33 25.28363 55.32193 1740 ft 205 kts 295°
2026-05-05 19:33 25.29063 55.30719 1967 ft 228 kts 304°
2026-05-05 19:34 25.30317 55.29634 2401 ft 235 kts 345°
2026-05-05 19:34 25.31923 55.29445 3087 ft 232 kts
2026-05-05 19:34 25.33550 55.29497 3625 ft 236 kts
2026-05-05 19:35 25.36848 55.29625 3798 ft 238 kts
2026-05-05 19:35 25.38510 55.29675 3796 ft 239 kts
2026-05-05 19:35 25.40147 55.29921 3800 ft 238 kts 18°
2026-05-05 19:35 25.41772 55.30582 3804 ft 260 kts 24°
2026-05-05 19:36 25.43468 55.31376 3802 ft 268 kts 24°
2026-05-05 19:36 25.45189 55.32187 3800 ft 269 kts 24°
2026-05-05 19:36 25.46913 55.32999 3800 ft 270 kts 24°
2026-05-05 19:36 25.48639 55.33808 3964 ft 270 kts 24°
2026-05-05 19:37 25.50381 55.34619 4588 ft 272 kts 24°
2026-05-05 19:37 25.52129 55.35433 5324 ft 274 kts 24°
2026-05-05 19:37 25.53897 55.36255 5988 ft 277 kts 24°
2026-05-05 19:37 25.55686 55.37089 6634 ft 280 kts 24°
2026-05-05 19:38 25.57475 55.37963 7290 ft 282 kts 29°
2026-05-05 19:38 25.59143 55.39106 7986 ft 283 kts 36°
2026-05-05 19:38 25.60737 55.40342 8700 ft 285 kts 37°
2026-05-05 19:38 25.62378 55.41633 9474 ft 286 kts 37°
2026-05-05 19:39 25.64013 55.42919 10095 ft 293 kts 37°
2026-05-05 19:39 25.65729 55.44266 10425 ft 311 kts 36°
2026-05-05 19:39 25.67472 55.45799 10703 ft 328 kts 43°
2026-05-05 19:39 25.69188 55.47562 10975 ft 344 kts 44°
2026-05-05 19:40 25.70956 55.49424 11339 ft 356 kts 44°
2026-05-05 19:40 25.72742 55.51307 11782 ft 363 kts 43°
2026-05-05 19:40 25.74584 55.53243 12333 ft 367 kts 43°
2026-05-05 19:40 25.76450 55.55204 12893 ft 372 kts 43°
2026-05-05 19:41 25.78344 55.57194 13386 ft 377 kts 43°
2026-05-05 19:41 25.80258 55.59205 13920 ft 381 kts 42°
2026-05-05 19:41 25.82196 55.61242 14405 ft 385 kts 42°
2026-05-05 19:41 25.84151 55.63294 14932 ft 389 kts 42°
2026-05-05 19:42 25.86215 55.65239 15467 ft 391 kts 36°
2026-05-05 19:42 25.88441 55.66993 15982 ft 394 kts 32°
2026-05-05 19:42 25.90751 55.68662 16504 ft 398 kts 31°
2026-05-05 19:42 25.93106 55.70297 17023 ft 401 kts 30°
2026-05-05 19:43 25.95493 55.71936 17541 ft 405 kts 30°
2026-05-05 19:43 25.97899 55.73594 18075 ft 409 kts 30°
2026-05-05 19:43 26.00321 55.75278 18539 ft 413 kts 30°
2026-05-05 19:43 26.02760 55.76988 19038 ft 415 kts 30°
2026-05-05 19:44 26.05309 55.78497 19534 ft 415 kts 20°
2026-05-05 19:44 26.08078 55.79352 20058 ft 413 kts
2026-05-05 19:44 26.10943 55.79548 20590 ft 413 kts 358°
2026-05-05 19:44 26.13824 55.79447 21100 ft 415 kts 352°
2026-05-05 19:45 26.16645 55.78819 21616 ft 414 kts 340°
2026-05-05 19:45 26.19276 55.77549 22099 ft 413 kts 328°
2026-05-05 19:45 26.21589 55.75657 22597 ft 413 kts 315°
2026-05-05 19:45 26.23571 55.73338 23106 ft 415 kts 309°
2026-05-05 19:46 26.25435 55.70867 23576 ft 417 kts 307°
2026-05-05 19:46 26.27243 55.68326 24042 ft 419 kts 306°
2026-05-05 19:46 26.29034 55.65761 24505 ft 421 kts 306°
2026-05-05 19:46 26.30837 55.63184 24998 ft 422 kts 306°
2026-05-05 19:47 26.32656 55.60606 25493 ft 424 kts 306°
2026-05-05 19:47 26.34472 55.58056 25980 ft 426 kts 306°
2026-05-05 19:47 26.36323 55.55474 26506 ft 427 kts 306°
2026-05-05 19:47 26.38185 55.52888 27005 ft 429 kts 306°
2026-05-05 19:48 26.40060 55.50293 27464 ft 431 kts 306°
2026-05-05 19:48 26.41954 55.47680 27908 ft 434 kts 306°
2026-05-05 19:48 26.43857 55.45058 28353 ft 436 kts 306°
2026-05-05 19:48 26.45770 55.42421 28806 ft 438 kts 305°
2026-05-05 19:49 26.47690 55.39770 29229 ft 440 kts 305°
2026-05-05 19:49 26.48966 55.38007 29542 ft 442 kts 305°
2026-05-05 19:49 26.51558 55.34421 30045 ft 445 kts 305°
2026-05-05 19:49 26.53507 55.31727 30398 ft 447 kts 305°
2026-05-05 19:50 26.55462 55.29020 30746 ft 449 kts 305°
2026-05-05 19:50 26.57422 55.26298 31092 ft 450 kts 304°
2026-05-05 19:50 26.59388 55.23563 31408 ft 452 kts 304°
2026-05-05 19:50 26.61360 55.20818 31728 ft 454 kts 304°
2026-05-05 19:51 26.63344 55.18056 32051 ft 456 kts 304°
2026-05-05 19:51 26.65328 55.15293 32345 ft 457 kts 304°
2026-05-05 19:51 26.67324 55.12513 32638 ft 459 kts 304°
2026-05-05 19:51 26.69321 55.09730 32944 ft 460 kts 304°
2026-05-05 19:52 26.71328 55.06933 33253 ft 461 kts 304°
2026-05-05 19:52 26.73334 55.04135 33612 ft 460 kts 304°
2026-05-05 19:52 26.75332 55.01348 33998 ft 458 kts 304°
2026-05-05 19:52 26.77326 54.98566 34314 ft 457 kts 304°
2026-05-05 19:53 26.79311 54.95794 34628 ft 457 kts 304°
2026-05-05 19:53 26.81296 54.93018 34901 ft 456 kts 303°
2026-05-05 19:53 26.83269 54.90241 35173 ft 456 kts 303°
2026-05-05 19:53 26.85238 54.87465 35472 ft 455 kts 303°
2026-05-05 19:54 26.87202 54.84692 35773 ft 454 kts 303°
2026-05-05 19:54 26.89163 54.81925 36105 ft 452 kts 303°
2026-05-05 19:54 26.91115 54.79170 36424 ft 451 kts 303°
2026-05-05 19:54 26.93064 54.76419 36711 ft 450 kts 303°
2026-05-05 19:55 26.95008 54.73672 36937 ft 450 kts 303°
2026-05-05 19:55 26.96957 54.70917 37122 ft 451 kts 303°
2026-05-05 19:55 26.98878 54.68200 37399 ft 450 kts 303°
2026-05-05 19:55 27.00817 54.65454 37674 ft 449 kts 302°
2026-05-05 19:56 27.02755 54.62711 37897 ft 449 kts 302°
2026-05-05 19:56 27.04693 54.59966 38120 ft 448 kts 302°
2026-05-05 19:56 27.06626 54.57229 38411 ft 447 kts 302°
2026-05-05 19:56 27.08550 54.54507 38690 ft 444 kts 302°
2026-05-05 19:57 27.10467 54.51788 38852 ft 444 kts 302°
2026-05-05 19:57 27.14302 54.46339 39112 ft 446 kts 302°
2026-05-05 19:57 27.16222 54.43605 39253 ft 446 kts 302°
2026-05-05 19:58 27.18141 54.40875 39418 ft 446 kts 302°
2026-05-05 19:58 27.20060 54.38145 39579 ft 446 kts 302°
2026-05-05 19:58 27.21982 54.35409 39733 ft 445 kts 302°
2026-05-05 19:58 27.23900 54.32678 39850 ft 446 kts 302°
2026-05-05 19:59 27.25815 54.29947 39855 ft 444 kts 302°
2026-05-05 19:59 27.29629 54.24506 39856 ft 443 kts 302°
2026-05-05 20:00 27.33441 54.19059 39871 ft 444 kts 302°
2026-05-05 20:00 27.37255 54.13599 39870 ft 444 kts 302°
2026-05-05 20:01 27.41073 54.08129 39893 ft 444 kts 301°
2026-05-05 20:01 27.44883 54.02665 39872 ft 443 kts 301°
2026-05-05 20:02 27.48657 53.97246 39884 ft 443 kts 301°
2026-05-05 20:02 27.52507 53.91818 39876 ft 446 kts 305°
2026-05-05 20:03 27.57293 53.87198 39889 ft 462 kts 320°
2026-05-05 20:03 27.62848 53.83467 39899 ft 466 kts 322°
2026-05-05 20:04 27.68523 53.79909 39896 ft 467 kts 322°
2026-05-05 20:04 27.73249 53.76955 39911 ft 467 kts 322°
2026-05-05 20:05 27.78913 53.73381 39930 ft 467 kts 322°
2026-05-05 20:05 27.84572 53.69785 39920 ft 467 kts 322°
2026-05-05 20:06 27.90220 53.66184 39933 ft 466 kts 322°
2026-05-05 20:06 27.95870 53.62577 39934 ft 466 kts 322°
2026-05-05 20:07 28.01518 53.58970 39943 ft 466 kts 321°
2026-05-05 20:07 28.07172 53.55355 39961 ft 466 kts 321°
2026-05-05 20:08 28.12815 53.51744 39964 ft 466 kts 321°
2026-05-05 20:08 28.18469 53.48119 39991 ft 467 kts 321°
2026-05-05 20:09 28.24117 53.44495 39967 ft 466 kts 321°
2026-05-05 20:09 28.29758 53.40872 39969 ft 466 kts 321°
2026-05-05 20:10 28.35400 53.37243 39976 ft 466 kts 321°
2026-05-05 20:10 28.41040 53.33611 39967 ft 466 kts 321°
2026-05-05 20:11 28.46676 53.29975 39981 ft 466 kts 321°
2026-05-05 20:11 28.52310 53.26336 39996 ft 466 kts 321°
2026-05-05 20:12 28.57937 53.22683 40024 ft 466 kts 321°
2026-05-05 20:12 28.63543 53.18982 40009 ft 466 kts 320°
2026-05-05 20:13 28.69158 53.15276 40021 ft 466 kts 320°
2026-05-05 20:13 28.74768 53.11573 40038 ft 466 kts 320°
2026-05-05 20:14 28.80375 53.07872 40038 ft 466 kts 320°
2026-05-05 20:14 28.85982 53.04170 40048 ft 465 kts 320°
2026-05-05 20:15 28.91584 53.00465 40066 ft 465 kts 320°
2026-05-05 20:15 28.97189 52.96750 40111 ft 467 kts 320°
2026-05-05 20:16 29.02802 52.93029 40079 ft 466 kts 320°
2026-05-05 20:16 29.08415 52.89311 40092 ft 466 kts 320°
2026-05-05 20:17 29.14017 52.85587 40096 ft 466 kts 320°
2026-05-05 20:17 29.19614 52.81863 40110 ft 465 kts 320°
2026-05-05 20:18 29.25202 52.78139 40108 ft 465 kts 320°
2026-05-05 20:18 29.30751 52.74437 40107 ft 465 kts 320°
2026-05-05 20:19 29.36338 52.70706 40126 ft 465 kts 320°
2026-05-05 20:19 29.41926 52.66970 40113 ft 465 kts 320°
2026-05-05 20:20 29.47510 52.63232 40118 ft 464 kts 320°
2026-05-05 20:20 29.53141 52.59566 40156 ft 471 kts 324°
2026-05-05 20:21 29.59335 52.56814 40157 ft 480 kts 330°
2026-05-05 20:21 29.65691 52.54373 40153 ft 482 kts 331°
2026-05-05 20:22 29.72066 52.51983 40151 ft 482 kts 331°
2026-05-05 20:22 29.78444 52.49574 40131 ft 482 kts 331°
2026-05-05 20:23 29.84816 52.47147 40120 ft 482 kts 331°
2026-05-05 20:23 29.91187 52.44712 40129 ft 482 kts 331°
2026-05-05 20:24 29.97561 52.42272 40131 ft 482 kts 331°
2026-05-05 20:24 30.03924 52.39833 40128 ft 482 kts 331°
2026-05-05 20:25 30.10244 52.37408 40128 ft 482 kts 331°
2026-05-05 20:25 30.16604 52.34964 40140 ft 482 kts 331°
2026-05-05 20:26 30.22959 52.32519 40130 ft 481 kts 331°
2026-05-05 20:26 30.29313 52.30071 40131 ft 481 kts 331°
2026-05-05 20:27 30.35663 52.27621 40146 ft 481 kts 330°
2026-05-05 20:27 30.42003 52.25172 40139 ft 480 kts 330°
2026-05-05 20:28 30.48339 52.22722 40147 ft 480 kts 330°
2026-05-05 20:28 30.54661 52.20267 40162 ft 480 kts 330°
2026-05-05 20:29 30.60995 52.17811 40144 ft 480 kts 330°
2026-05-05 20:29 30.67330 52.15354 40158 ft 480 kts 330°
2026-05-05 20:30 30.73661 52.12883 40160 ft 480 kts 330°
2026-05-05 20:30 30.79985 52.10406 40151 ft 480 kts 330°
2026-05-05 20:31 30.86304 52.07930 40150 ft 479 kts 330°
2026-05-05 20:31 30.92623 52.05449 40148 ft 480 kts 330°
2026-05-05 20:32 30.98950 52.02964 40146 ft 479 kts 330°
2026-05-05 20:32 31.05265 52.00481 40140 ft 479 kts 330°
2026-05-05 20:33 31.11580 51.97993 40133 ft 479 kts 330°
2026-05-05 20:33 31.17857 51.95517 40132 ft 479 kts 330°
2026-05-05 20:34 31.24182 51.93018 40134 ft 480 kts 330°
2026-05-05 20:34 31.30508 51.90517 40129 ft 480 kts 330°
2026-05-05 20:35 31.36827 51.88015 40139 ft 479 kts 330°
2026-05-05 20:35 31.43140 51.85518 40137 ft 479 kts 330°
2026-05-05 20:36 31.49454 51.83004 40143 ft 479 kts 330°
2026-05-05 20:36 31.55769 51.80489 40149 ft 478 kts 329°
2026-05-05 20:37 31.62057 51.77984 40142 ft 477 kts 329°
2026-05-05 20:37 31.68337 51.75479 40144 ft 476 kts 329°
2026-05-05 20:38 31.74617 51.72966 40145 ft 478 kts 329°
2026-05-05 20:38 31.80921 51.70449 40143 ft 478 kts 329°
2026-05-05 20:39 31.87235 51.67922 40136 ft 480 kts 329°
2026-05-05 20:39 31.93543 51.65395 40135 ft 479 kts 329°
2026-05-05 20:40 31.99855 51.62863 40136 ft 479 kts 329°
2026-05-05 20:40 32.06158 51.60330 40134 ft 478 kts 329°
2026-05-05 20:41 32.12459 51.57795 40138 ft 478 kts 329°
2026-05-05 20:41 32.18770 51.55249 40138 ft 481 kts 329°
2026-05-05 20:42 32.25116 51.52685 40138 ft 483 kts 330°
2026-05-05 20:42 32.31430 51.50136 40135 ft 483 kts 330°
2026-05-05 20:43 32.37784 51.47566 40134 ft 483 kts 330°
2026-05-05 20:43 32.44135 51.44993 40137 ft 482 kts 330°
2026-05-05 20:44 32.50484 51.42416 40146 ft 482 kts 329°
2026-05-05 20:44 32.56836 51.39834 40144 ft 483 kts 330°
2026-05-05 20:45 32.66358 51.35957 40151 ft 482 kts 329°
2026-05-05 20:45 32.72712 51.33358 40147 ft 483 kts 329°
2026-05-05 20:46 32.79074 51.30752 40169 ft 484 kts 329°
2026-05-05 20:46 32.85443 51.28145 40179 ft 484 kts 329°
2026-05-05 20:47 32.91818 51.25540 40167 ft 484 kts 329°
2026-05-05 20:47 32.98192 51.22923 40172 ft 484 kts 329°
2026-05-05 20:48 33.04562 51.20295 40183 ft 486 kts 329°
2026-05-05 20:48 33.10952 51.17666 40172 ft 485 kts 329°
2026-05-05 20:49 33.17335 51.15039 40175 ft 485 kts 329°
2026-05-05 20:49 33.23718 51.12405 40181 ft 486 kts 329°
2026-05-05 20:50 33.29022 51.10211 40181 ft 485 kts 329°
2026-05-05 20:50 33.35405 51.07569 40181 ft 485 kts 329°
2026-05-05 20:51 33.41789 51.04921 40178 ft 485 kts 329°
2026-05-05 20:51 33.49197 51.01845 40167 ft 485 kts 329°
2026-05-05 20:52 33.55572 50.99196 40176 ft 485 kts 329°
2026-05-05 20:52 33.60914 50.96964 40157 ft 486 kts 329°
2026-05-05 20:53 33.67298 50.94295 40148 ft 486 kts 329°
2026-05-05 20:53 33.73645 50.91640 40157 ft 486 kts 329°
2026-05-05 20:54 33.80084 50.88942 40121 ft 487 kts 329°
2026-05-05 20:54 33.86444 50.86274 40110 ft 487 kts 329°
2026-05-05 20:55 33.92849 50.83584 40116 ft 487 kts 329°
2026-05-05 20:55 33.99256 50.80886 40105 ft 488 kts 329°
2026-05-05 20:56 34.05663 50.78185 40094 ft 488 kts 329°
2026-05-05 20:56 34.12069 50.75480 40088 ft 488 kts 329°
2026-05-05 20:57 34.18473 50.72772 40067 ft 488 kts 329°
2026-05-05 20:57 34.24874 50.70062 40059 ft 487 kts 329°
2026-05-05 20:58 34.31276 50.67346 40060 ft 487 kts 329°
2026-05-05 20:58 34.37672 50.64628 40048 ft 487 kts 329°
2026-05-05 20:59 34.44065 50.61902 40049 ft 487 kts 330°
2026-05-05 20:59 34.50459 50.59174 40030 ft 487 kts 330°
2026-05-05 21:00 34.56861 50.56442 40017 ft 488 kts 330°
2026-05-05 21:00 34.63263 50.53705 40006 ft 488 kts 330°
2026-05-05 21:01 34.69683 50.50953 40009 ft 490 kts 330°
2026-05-05 21:01 34.76112 50.48198 40004 ft 490 kts 330°
2026-05-05 21:02 34.82537 50.45442 40002 ft 490 kts 330°
2026-05-05 21:02 34.88959 50.42683 39999 ft 489 kts 330°
2026-05-05 21:03 34.95388 50.39914 40012 ft 490 kts 330°
2026-05-05 21:03 35.01546 50.36637 40007 ft 473 kts 318°
2026-05-05 21:04 35.04198 50.34367 40010 ft 460 kts 310°
2026-05-05 21:04 35.06640 50.31858 40011 ft 458 kts 309°
2026-05-05 21:04 35.11361 50.26665 40018 ft 456 kts 307°
2026-05-05 21:05 35.16028 50.21394 40018 ft 458 kts 307°
2026-05-05 21:05 35.20713 50.16122 40023 ft 457 kts 308°
2026-05-05 21:06 35.25378 50.10896 40037 ft 458 kts 308°
2026-05-05 21:06 35.30088 50.05621 40040 ft 459 kts 307°
2026-05-05 21:07 35.34802 50.00333 40037 ft 459 kts 307°
2026-05-05 21:07 35.39513 49.95038 40052 ft 460 kts 307°
2026-05-05 21:08 35.44221 49.89738 40044 ft 459 kts 307°
2026-05-05 21:08 35.48928 49.84429 40045 ft 459 kts 307°
2026-05-05 21:09 35.53630 49.79115 40037 ft 460 kts 307°
2026-05-05 21:09 35.58343 49.73781 40050 ft 461 kts 307°
2026-05-05 21:10 35.63051 49.68445 40044 ft 461 kts 307°
2026-05-05 21:10 35.67758 49.63101 40022 ft 460 kts 307°
2026-05-05 21:11 35.72464 49.57749 40020 ft 460 kts 307°
2026-05-05 21:11 35.77163 49.52394 40027 ft 461 kts 307°
2026-05-05 21:12 35.81874 49.47016 40027 ft 462 kts 307°
2026-05-05 21:12 35.86589 49.41626 40032 ft 462 kts 307°
2026-05-05 21:13 35.91303 49.36230 40039 ft 463 kts 307°
2026-05-05 21:13 35.96027 49.30813 40028 ft 464 kts 307°
2026-05-05 21:14 36.00755 49.25381 40029 ft 465 kts 307°
2026-05-05 21:14 36.05484 49.19935 40037 ft 466 kts 307°
2026-05-05 21:15 36.10227 49.14466 40039 ft 466 kts 307°
2026-05-05 21:15 36.14939 49.09024 40044 ft 467 kts 307°
2026-05-05 21:16 36.19687 49.03531 40048 ft 468 kts 307°
2026-05-05 21:16 36.24452 48.98006 40050 ft 470 kts 307°
2026-05-05 21:17 36.29221 48.92471 40059 ft 470 kts 307°
2026-05-05 21:17 36.33993 48.86922 40050 ft 470 kts 307°
2026-05-05 21:18 36.38758 48.81374 40061 ft 470 kts 307°
2026-05-05 21:18 36.43520 48.75814 40053 ft 471 kts 308°
2026-05-05 21:19 36.48295 48.70229 40056 ft 472 kts 308°
2026-05-05 21:19 36.53070 48.64638 40079 ft 472 kts 308°
2026-05-05 21:20 36.57846 48.59037 40049 ft 472 kts 308°
2026-05-05 21:20 36.62622 48.53424 40047 ft 472 kts 308°
2026-05-05 21:21 36.67398 48.47802 40051 ft 473 kts 308°
2026-05-05 21:21 36.72184 48.42154 40051 ft 474 kts 307°
2026-05-05 21:22 36.76983 48.36527 40044 ft 475 kts 310°
2026-05-05 21:22 36.82225 48.31479 40048 ft 481 kts 314°
2026-05-05 21:23 36.87695 48.26536 40048 ft 482 kts 315°
2026-05-05 21:23 36.93151 48.21653 40035 ft 483 kts 315°
2026-05-05 21:24 36.98579 48.16772 40026 ft 484 kts 315°
2026-05-05 21:24 37.04046 48.11835 40046 ft 485 kts 315°
2026-05-05 21:25 37.09508 48.06890 39996 ft 484 kts 315°
2026-05-05 21:25 37.14962 48.01942 39988 ft 484 kts 315°
2026-05-05 21:26 37.20418 47.96984 39987 ft 484 kts 315°
2026-05-05 21:26 37.25874 47.92016 39982 ft 485 kts 315°
2026-05-05 21:27 37.31330 47.87040 39986 ft 485 kts 315°
2026-05-05 21:27 37.36788 47.82053 39995 ft 485 kts 315°
2026-05-05 21:28 37.42246 47.77058 39985 ft 485 kts 315°
2026-05-05 21:28 37.47706 47.72055 40002 ft 486 kts 315°
2026-05-05 21:29 37.53178 47.67033 40006 ft 487 kts 315°
2026-05-05 21:29 37.58652 47.62001 40040 ft 487 kts 315°
2026-05-05 21:30 37.64128 47.56959 40015 ft 488 kts 315°
2026-05-05 21:30 37.69606 47.51904 40025 ft 488 kts 315°
2026-05-05 21:31 37.75086 47.46837 40020 ft 489 kts 315°
2026-05-05 21:31 37.80583 47.41745 40023 ft 490 kts 315°
2026-05-05 21:32 37.86085 47.36641 40059 ft 490 kts 315°
2026-05-05 21:32 37.91595 47.31525 40016 ft 492 kts 315°
2026-05-05 21:33 37.97119 47.26385 40004 ft 493 kts 315°
2026-05-05 21:33 38.02640 47.21237 39998 ft 493 kts 315°
2026-05-05 21:34 38.08159 47.16081 39991 ft 493 kts 315°
2026-05-05 21:34 38.13676 47.10919 40013 ft 492 kts 315°
2026-05-05 21:35 38.19149 47.05789 39990 ft 492 kts 315°
2026-05-05 21:35 38.24648 47.00624 39989 ft 491 kts 315°
2026-05-05 21:36 38.30143 46.95451 39990 ft 491 kts 315°
2026-05-05 21:36 38.35635 46.90274 39987 ft 491 kts 315°
2026-05-05 21:37 38.41127 46.85100 39991 ft 491 kts 315°
2026-05-05 21:37 38.46626 46.79913 39993 ft 492 kts 315°
2026-05-05 21:38 38.52134 46.74706 39988 ft 493 kts 315°
2026-05-05 21:38 38.57644 46.69491 39998 ft 493 kts 315°
2026-05-05 21:39 38.62219 46.65145 39986 ft 493 kts 315°
2026-05-05 21:39 38.67723 46.59890 39979 ft 494 kts 315°
2026-05-05 21:40 38.73226 46.54628 39980 ft 493 kts 315°
2026-05-05 21:40 38.78722 46.49367 39963 ft 493 kts 315°
2026-05-05 21:41 38.84217 46.44095 39982 ft 493 kts 315°
2026-05-05 21:41 38.89747 46.38880 39939 ft 496 kts 320°
2026-05-05 21:42 38.95738 46.34368 39940 ft 501 kts 323°
2026-05-05 21:42 39.01841 46.30009 39946 ft 503 kts 323°
2026-05-05 21:43 39.07973 46.25660 39940 ft 504 kts 323°
2026-05-05 21:43 39.14107 46.21288 39942 ft 504 kts 323°
2026-05-05 21:44 39.20235 46.16898 39947 ft 505 kts 323°
2026-05-05 21:44 39.26381 46.12482 39950 ft 506 kts 323°
2026-05-05 21:45 39.32534 46.08054 39966 ft 506 kts 324°
2026-05-05 21:45 39.38692 46.03614 39956 ft 507 kts 324°
2026-05-05 21:46 39.44855 45.99161 39953 ft 508 kts 324°
2026-05-05 21:46 39.51024 45.94694 39957 ft 508 kts 324°
2026-05-05 21:47 39.57204 45.90210 39961 ft 509 kts 324°
2026-05-05 21:47 39.63372 45.85718 39976 ft 508 kts 323°
2026-05-05 21:48 39.68872 45.80228 39948 ft 493 kts 309°
2026-05-05 21:48 39.73680 45.73978 39960 ft 491 kts 307°
2026-05-05 21:49 39.78400 45.67551 39956 ft 491 kts 307°
2026-05-05 21:49 39.83102 45.61122 39958 ft 491 kts 307°
2026-05-05 21:50 39.87817 45.54690 39936 ft 491 kts 307°
2026-05-05 21:50 39.92543 45.48250 39948 ft 492 kts 307°
2026-05-05 21:51 39.97273 45.41796 39941 ft 493 kts 307°
2026-05-05 21:51 40.02007 45.35323 39941 ft 493 kts 307°
2026-05-05 21:52 40.09096 45.25593 39944 ft 494 kts 307°
2026-05-05 21:53 40.13828 45.19091 39943 ft 494 kts 307°
2026-05-05 21:53 40.18557 45.12578 39951 ft 494 kts 307°
2026-05-05 21:54 40.23282 45.06054 39949 ft 494 kts 307°
2026-05-05 21:54 40.28006 44.99517 39950 ft 494 kts 307°
2026-05-05 21:55 40.32730 44.92962 39952 ft 495 kts 307°
2026-05-05 21:55 40.37459 44.86387 39950 ft 496 kts 307°
2026-05-05 21:56 40.42192 44.79792 39949 ft 496 kts 307°
2026-05-05 21:56 40.46922 44.73190 39946 ft 497 kts 307°
2026-05-05 21:57 40.51654 44.66565 39948 ft 497 kts 307°
2026-05-05 21:57 40.56385 44.59936 39940 ft 496 kts 307°
2026-05-05 21:58 40.61111 44.53292 39945 ft 498 kts 307°
2026-05-05 21:58 40.65850 44.46615 39947 ft 499 kts 307°
2026-05-05 21:59 40.70586 44.39927 39962 ft 499 kts 307°
2026-05-05 21:59 40.75327 44.33224 39958 ft 500 kts 307°
2026-05-05 22:00 40.80062 44.26507 39943 ft 500 kts 307°
2026-05-05 22:00 40.84788 44.19788 39956 ft 500 kts 307°
2026-05-05 22:01 40.89519 44.13047 39952 ft 500 kts 307°
2026-05-05 22:01 40.94249 44.06295 39961 ft 500 kts 307°
2026-05-05 22:02 40.98973 43.99535 39974 ft 500 kts 308°
2026-05-05 22:02 41.03695 43.92761 39958 ft 501 kts 308°
2026-05-05 22:03 41.08414 43.85978 39958 ft 501 kts 308°
2026-05-05 22:03 41.13430 43.79612 39944 ft 508 kts 319°
2026-05-05 22:04 41.19658 43.74999 39953 ft 516 kts 330°
2026-05-05 22:04 41.26220 43.71080 39943 ft 518 kts 332°
2026-05-05 22:05 41.32832 43.67262 39943 ft 518 kts 332°
2026-05-05 22:05 41.39427 43.63417 39928 ft 517 kts 332°
2026-05-05 22:06 41.46007 43.59537 39914 ft 517 kts 332°
2026-05-05 22:06 41.52580 43.55639 39915 ft 517 kts 332°
2026-05-05 22:07 41.59116 43.51649 39908 ft 514 kts 326°
2026-05-05 22:07 41.62008 43.48929 39910 ft 504 kts 313°
2026-05-05 22:07 41.64296 43.45454 39918 ft 494 kts 298°
2026-05-05 22:08 41.67730 43.37552 39912 ft 492 kts 294°
2026-05-05 22:08 41.71026 43.29496 39906 ft 495 kts 294°
2026-05-05 22:09 41.74323 43.21413 39912 ft 494 kts 294°
2026-05-05 22:09 41.77612 43.13337 39911 ft 494 kts 294°
2026-05-05 22:10 41.80898 43.05246 39908 ft 494 kts 294°
2026-05-05 22:10 41.84180 42.97144 39917 ft 494 kts 294°
2026-05-05 22:11 41.87454 42.89037 39912 ft 494 kts 294°
2026-05-05 22:11 41.90729 42.80909 39918 ft 495 kts 294°
2026-05-05 22:12 41.93997 42.72772 39915 ft 495 kts 294°
2026-05-05 22:12 41.97263 42.64615 39950 ft 496 kts 294°
2026-05-05 22:13 42.00528 42.56443 39934 ft 496 kts 294°
2026-05-05 22:13 42.03792 42.48251 39939 ft 497 kts 294°
2026-05-05 22:14 42.07047 42.40055 39937 ft 497 kts 294°
2026-05-05 22:14 42.10299 42.31844 39938 ft 496 kts 294°
2026-05-05 22:15 42.13541 42.23637 39939 ft 496 kts 294°
2026-05-05 22:15 42.16778 42.15417 39944 ft 496 kts 294°
2026-05-05 22:16 42.20010 42.07187 39947 ft 496 kts 295°
2026-05-05 22:16 42.23234 41.98955 39954 ft 497 kts 294°
2026-05-05 22:17 42.26455 41.90706 39955 ft 496 kts 294°
2026-05-05 22:17 42.29669 41.82454 39965 ft 497 kts 295°
2026-05-05 22:18 42.32879 41.74186 39956 ft 497 kts 294°
2026-05-05 22:18 42.36084 41.65909 39956 ft 497 kts 294°
2026-05-05 22:19 42.39284 41.57620 39961 ft 497 kts 294°
2026-05-05 22:19 42.42477 41.49325 39958 ft 497 kts 294°
2026-05-05 22:20 42.45663 41.41024 39960 ft 497 kts 294°
2026-05-05 22:20 42.48823 41.32766 39964 ft 497 kts 294°
2026-05-05 22:21 42.51998 41.24446 39966 ft 497 kts 294°
2026-05-05 22:21 42.55171 41.16108 39963 ft 498 kts 294°
2026-05-05 22:22 42.58341 41.07751 39963 ft 498 kts 294°
2026-05-05 22:22 42.61503 40.99392 39974 ft 498 kts 294°
2026-05-05 22:22 42.63076 40.95228 39631 ft 494 kts 294°
2026-05-05 22:23 42.64646 40.91062 38896 ft 498 kts 294°
2026-05-05 22:23 42.66228 40.86854 37992 ft 501 kts 294°
2026-05-05 22:23 42.67816 40.82626 37108 ft 504 kts 294°
2026-05-05 22:23 42.69411 40.78374 36252 ft 505 kts 294°
2026-05-05 22:24 42.71006 40.74116 35428 ft 506 kts 294°
2026-05-05 22:24 42.72065 40.71286 34902 ft 507 kts 295°
2026-05-05 22:24 42.73664 40.67005 34050 ft 509 kts 295°
2026-05-05 22:24 42.75265 40.62716 33087 ft 510 kts 295°
2026-05-05 22:25 42.76872 40.58406 32121 ft 510 kts 295°
2026-05-05 22:25 42.78474 40.54100 31178 ft 510 kts 295°
2026-05-05 22:25 42.80075 40.49791 30271 ft 509 kts 295°
2026-05-05 22:25 42.81668 40.45499 29338 ft 507 kts 295°
2026-05-05 22:26 42.83251 40.41221 28405 ft 505 kts 295°
2026-05-05 22:26 42.84830 40.36951 27556 ft 502 kts 296°
2026-05-05 22:26 42.86389 40.32731 26865 ft 496 kts 296°
2026-05-05 22:26 42.87928 40.28556 26217 ft 490 kts 296°
2026-05-05 22:27 42.89449 40.24425 25566 ft 485 kts 296°
2026-05-05 22:27 42.90944 40.20358 24791 ft 472 kts 296°
2026-05-05 22:27 42.92399 40.16395 23537 ft 463 kts 296°
2026-05-05 22:27 42.93833 40.12481 22005 ft 458 kts 296°
2026-05-05 22:28 42.95244 40.08627 20582 ft 450 kts 296°
2026-05-05 22:28 42.96630 40.04837 19259 ft 443 kts 296°
2026-05-05 22:28 42.97991 40.01109 17954 ft 435 kts 296°
2026-05-05 22:28 42.99204 39.97366 16570 ft 426 kts 289°
2026-05-05 22:29 43.00142 39.93573 15299 ft 416 kts 287°
2026-05-05 22:29 43.01008 39.89844 14082 ft 407 kts 286°
2026-05-05 22:29 43.01849 39.86198 13144 ft 399 kts 286°
2026-05-05 22:29 43.02678 39.82610 12523 ft 393 kts 287°
2026-05-05 22:30 43.03493 39.79088 11961 ft 385 kts 287°
2026-05-05 22:30 43.04294 39.75633 11406 ft 377 kts 287°
2026-05-05 22:30 43.05075 39.72246 10875 ft 370 kts 286°
2026-05-05 22:30 43.05833 39.68928 10546 ft 358 kts 286°
2026-05-05 22:31 43.06558 39.65755 10410 ft 341 kts 286°
2026-05-05 22:31 43.07249 39.62736 10285 ft 325 kts 286°
2026-05-05 22:31 43.07905 39.59856 10153 ft 310 kts 286°
2026-05-05 22:31 43.08539 39.57109 10025 ft 296 kts 286°
2026-05-05 22:32 43.09142 39.54484 9894 ft 283 kts 286°
2026-05-05 22:32 43.09731 39.51916 9591 ft 283 kts 286°
2026-05-05 22:32 43.10337 39.49359 9275 ft 283 kts 289°
2026-05-05 22:32 43.11337 39.47042 9000 ft 285 kts 312°
2026-05-05 22:33 43.12933 39.45531 8740 ft 285 kts 337°
2026-05-05 22:33 43.14839 39.44758 8282 ft 281 kts 346°
2026-05-05 22:33 43.16748 39.44177 7915 ft 281 kts 347°
2026-05-05 22:33 43.18650 39.43603 7564 ft 278 kts 346°
2026-05-05 22:34 43.20513 39.43027 7283 ft 278 kts 346°
2026-05-05 22:34 43.22385 39.42439 6892 ft 272 kts 345°
2026-05-05 22:34 43.24254 39.42111 6537 ft 272 kts
2026-05-05 22:34 43.26074 39.42779 6186 ft 274 kts 27°
2026-05-05 22:35 43.27460 39.44536 5832 ft 275 kts 55°
2026-05-05 22:35 43.28370 39.46855 5506 ft 276 kts 64°
2026-05-05 22:35 43.29162 39.49217 5294 ft 267 kts 64°
2026-05-05 22:35 43.29939 39.51478 5123 ft 256 kts 63°
2026-05-05 22:36 43.30709 39.53628 4973 ft 245 kts 63°
2026-05-05 22:36 43.31415 39.55671 4776 ft 229 kts 63°
2026-05-05 22:36 43.32074 39.57588 4571 ft 214 kts 63°
2026-05-05 22:36 43.32695 39.59399 4253 ft 206 kts 63°
2026-05-05 22:37 43.33285 39.61132 4018 ft 194 kts 63°
2026-05-05 22:37 43.33835 39.62757 3769 ft 183 kts 63°
2026-05-05 22:37 43.34354 39.64296 3524 ft 171 kts 63°
2026-05-05 22:37 43.34839 39.65738 3216 ft 161 kts 63°
2026-05-05 22:38 43.35295 39.67095 3101 ft 153 kts 63°
2026-05-05 22:38 43.35733 39.68393 3006 ft 145 kts 63°
2026-05-05 22:38 43.36153 39.69637 2973 ft 143 kts 62°
2026-05-05 22:38 43.36573 39.70877 2907 ft 144 kts 63°
2026-05-05 22:39 43.36995 39.72120 2834 ft 143 kts 64°
2026-05-05 22:39 43.37414 39.73356 2784 ft 143 kts 63°
2026-05-05 22:39 43.37834 39.74595 2702 ft 143 kts 63°
2026-05-05 22:39 43.38256 39.75840 2566 ft 144 kts 63°
2026-05-05 22:40 43.38680 39.77088 2386 ft 143 kts 64°
2026-05-05 22:40 43.39100 39.78326 2193 ft 142 kts 65°
2026-05-05 22:40 43.39517 39.79557 2025 ft 142 kts 65°
2026-05-05 22:40 43.39936 39.80789 1852 ft 142 kts 65°
2026-05-05 22:41 43.40356 39.82024 1670 ft 143 kts 65°
2026-05-05 22:41 43.40777 39.83266 1476 ft 143 kts 65°
2026-05-05 22:41 43.41200 39.84508 1311 ft 143 kts 65°
2026-05-05 22:41 43.41622 39.85748 1116 ft 143 kts 65°
2026-05-05 22:42 43.42039 39.86977 954 ft 145 kts 65°
2026-05-05 22:42 43.42465 39.88228 780 ft 144 kts 65°
2026-05-05 22:42 43.42890 39.89477 594 ft 143 kts 65°
2026-05-05 22:42 43.43311 39.90714 414 ft 142 kts 65°
2026-05-05 22:43 43.43731 39.91959 182 ft 144 kts 66°
2026-05-05 22:43 43.44145 39.93175 55 ft 134 kts 64°
2026-05-05 22:43 43.44454 39.94065 67 ft 63 kts 65°
2026-05-05 22:43 43.44589 39.94461 84 ft 43 kts 65°
2026-05-05 22:44 43.44717 39.94835 86 ft 44 kts 65°
2026-05-05 22:44 43.44794 39.95060 89 ft 18 kts 65°
2026-05-05 22:44 43.44852 39.95186 88 ft 13 kts 28°
2026-05-05 22:44 43.44924 39.95150 92 ft 11 kts 305°
2026-05-05 22:45 43.44920 39.95079 90 ft 9 kts 253°
2026-05-05 22:45 43.44903 39.95019 91 ft 0 kts 245°